sat.trackr.live / text

‹ back to catalog

WNISAT 1R

NORAD 42835 · 2017-042L

PAYLOAD ACTIVE UNKNOWN

§ Identity

Operator
Country
JPN
Launch date
2017-07-14
Launch site
TYMSC
Launch vehicle
Mass (kg)
RCS (m²)

External: N2YO · Heavens-Above · Gunter

§ Orbital elements

Epoch: 2026-05-24T23:17:16.560384Z

Period
95.90 min
Inclination
97.4816°
Eccentricity
0.0009424
Mean motion
15.01639346 rev/d
Perigee alt
555.3 km
Apogee alt
568.4 km
Semi-major
6,940.0 km
B*
1.5998e-4
RAAN
301.9268°
Arg perigee
237.3383°
Mean anomaly
122.6934°
Rev number
48,302

§ Raw data

WNISAT 1R1 42835U 17042L   26144.97033056  .00002020  00000+0  15998-3 0  99942 42835  97.4816 301.9268 0009424 237.3383 122.6934 15.01639346483028

JSON: /api/v1/satellites/42835 · /tle

For live sub-satellite position, see the globe view (requires WebGL).

§ Visibility from observer

Set your observer location to see the next 7 days of passes ≥ 10°. The values pass through the URL so the page stays shareable.

No JS? Fill the form by hand. The geolocation button needs JavaScript.

§ Radio — SatNOGS DB

ModeDescriptionDownlinkUplink
FM Downlink 401.800 MHz

1 transmitter · refreshed weekly from db.satnogs.org